Location: Clairmont
(55.2667°N, 118.8000°W)
Time: 08:53:51
(UTC+00:00)

N. Korean satellite - Pass Details

Date: 31 October 2020
Orbit: 453 x 503 km, 97.2° (Epoch: 03 December)

Event Time Altitude Azimuth Distance (km) Brightness Sun altitude
Rises 01:43:43 0° 213° (SSW) 2,529 10.8 -12.3°
Reaches altitude 10° 01:46:40 10° 241° (WSW) 1,644 10.4 -12.7°
Maximum altitude 01:48:29 14° 272° (W) 1,437 10.3 -13.0°
Drops below altitude 10° 01:50:18 10° 303° (WNW) 1,637 10.0 -13.3°
Sets 01:53:14 0° 331° (NNW) 2,509 10.5 -13.7°
